Regional Weather Roundup
Issued by NWS Newport/Morehead, NC

Current Version | Previous Version | Text Only | Print | Product List | Glossary On
Versions: 1 2 3 4 5 6 7 8 9 10 11 12 13 14 15 16 17 18 19 20 21 22 23 24 25 26 27 28 29 30 31 32 33 34 35 36 37 38 39 40 41 42 43 44 45 46 47 48 49 50
000
ASUS42 KMHX 260010
RWRMHX
WEATHER ROUNDUP FOR EASTERN NORTH CAROLINA
NATIONAL WEATHER SERVICE NEWPORT/MOREHEAD CITY NC
700 PM EST TUE NOV 25 2014

NOTE: "FAIR" INDICATES FEW OR NO CLOUDS BELOW 12,000 FEET
WITH NO SIGNIFICANT WEATHER AND/OR OBSTRUCTIONS TO VISIBILITY

NCZ015>017-031-032-045>047-102-103-260100-
NORTH COAST

CITY           SKY/WX    TMP DP  RH WIND       PRES   REMARKS
EDENTON        CLOUDY    53  51  92 N7        30.08F
ELIZABETH CITY CLOUDY    56  49  77 NE8       30.09F
KITTY HAWK     CLOUDY    55  54  97 N6        30.07S
MANTEO         CLOUDY    56  56  98 N13       30.08S

$$

NCZ045>047-081-094-103-104-260100-
CENTRAL COAST

CITY           SKY/WX    TMP DP  RH WIND       PRES   REMARKS
FRISCO         CLOUDY    60  60 100 NW3       30.08R FOG
SWANQUARTER      N/A     61 N/A N/A N1        30.03S

$$

NCZ095-097-098-100-101-260100-
SOUTHERN COAST

CITY           SKY/WX    TMP DP  RH WIND       PRES   REMARKS
BEAUFORT       CLOUDY    63  62  97 S5        30.09R
CEDAR ISLAND     N/A     59 N/A N/A E2        30.12R
JACKSONVILLE   CLOUDY    63  61  93 E3        30.05R
PINEY ISLAND   LGT RAIN  62  59  90 E6        30.06R FOG
WILMINGTON     CLOUDY    64  62  93 CALM      30.05R


$$

NCZ011>013-027>030-043-044-078>080-089-090>093-098-260100-
COASTAL PLAIN

CITY           SKY/WX    TMP DP  RH WIND       PRES   REMARKS
AHOSKIE        LGT RAIN  52  49  89 CALM      30.11R
CLINTON        LGT RAIN  54  51  90 NE5       30.08R
ELIZABETHTOWN  CLOUDY    63  63 100 CALM      30.05R FOG
GOLDSBORO      CLOUDY    54  53  98 CALM      30.05F
GREENVILLE     RAIN      54  54 100 CALM      30.09F
HAVELOCK       LGT RAIN  63  61  93 NE5       30.06S
KENANSVILLE    CLOUDY    54  51  90 N3        30.06S
KINSTON        CLOUDY    54  52  94 N6        30.07F
NEW BERN       CLOUDY    64  61  90 E3        30.06S
RICHLANDS      CLOUDY    63  59  88 CALM      30.05S
ROCKY MOUNT    LGT RAIN  51  50  96 CALM      30.08R
WASHINGTON     CLOUDY    56  54  94 N5        30.07S
WHITEVILLE     CLOUDY    63  61  94 CALM      30.05R FOG

$$

AMZ130-135-150-152-154-156-158-170-250-252-270-ANZ085-086-088-633-658-670-260100-
MARINE OBSERVATIONS

STATION/POSITION TIME  TEMP    WIND        PRES    WAVE   SWELL
                       AIR SEA DIR/SP/G            HT/PER HT/PER
                 (UTC) (F)     (DEG/KT/KT) (MB)    (FT/S) (FT/S)
CHESAPEAKE LIGHT 2300   56      60/ 18/ 20 1019.0
64 E VA BEACH    0000   61 64  310/ 10/ 14 1018.2    4/ 8   3/ 8
DUCK             0000   56 59  360/ 15/ 20 1017.7
2 E DUCK         0000      58                N/A     3/ 8
10 NE DUCK       0000      59                N/A     4/ 9   2/11
OREGON INLET     0000   58 58  340/  3/  4 1018.1
13E OREGON INLT  0000      62                N/A     3/ 9   2/11
HATTERAS CG      0000   62 63  330/  3/  4 1018.7
DIAMOND BUOY     0000   67     110/  2/  4 1018.1    5/ 8   5/ 8
17 S OCRACOKE    NOT AVBL
CAPE LOOKOUT     2300   62      70/  5/  5 1017.2
BEAUFORT LAB     0000   63 59   80/  2/  2 1017.2
30 SE NEW RIVER  2300   67 69  110/ 10/ 12 1018.2
5 SE WRIGHTSVLE  2300   58 59   40/  2/  4 1016.6
225 S CAPE HAT   NOT AVBL
41 SE CHARLESTON 0000   68 74   30/ 14/ 16 1015.4    4/ 8   3/ 8

$$


USA.gov is the U.S. government's official web portal to all federal, state and local government web resources and services.